Zim Luanda — 9HA2029 — position and weather

sailwx.info

Track history (hours):
 
Tides and Currents Weather Stations Pressure Air Temp Water Temp Dewpoint Dewpoint Depression Visibility Wind Speed Wind Dir Waves Ship Positions

Zim Luanda

Last reported at 2014-Nov-27 11:32 UTC. Time now 2014-Nov-27 11:53 UTC.
Position N 43°35' E 010°18'.

Length 260 m; draft 10.5 m.

Type: Ship (hazmat cat A). MMSI: 249830000.

Date/timePositionNaut miles runAvg speedWind from/ knotsBaromVisibWave heightAir tempDewpointWater temp
2014-Nov-27 11:32N 43°35' E 010°18'0 0.0
2014-Nov-27 10:29N 43°35' E 010°18'0 0.3
2014-Nov-27 09:33N 43°34' E 010°18'6 5.7
2014-Nov-27 08:33N 43°30' E 010°13'1211.6
2014-Nov-27 07:33N 43°22' E 010°02'1313.5
2014-Nov-27 06:33N 43°16' E 009°45'15513.8
2014-Nov-26 19:19N 42°23' E 006°26'1713.9
2014-Nov-26 18:06N 42°17' E 006°05'814.2
2014-Nov-26 17:32N 42°14' E 005°55'1914.1
2014-Nov-26 16:12N 42°08' E 005°30'1014.7
2014-Nov-26 15:29N 42°04' E 005°17'1313.3
2014-Nov-26 14:33N 42°01' E 005°01'1414.1
2014-Nov-26 13:33N 41°55' E 004°44'1714.2
2014-Nov-26 12:20N 41°50' E 004°22'1314.3
2014-Nov-26 11:28N 41°45' E 004°06'1314.1
2014-Nov-26 10:33N 41°41' E 003°50'1514.1
2014-Nov-26 09:28N 41°35' E 003°31'1313.9
2014-Nov-26 08:33N 41°31' E 003°15'1616.4
2014-Nov-26 07:32N 41°26' E 002°54'2613.1
2014-Nov-26 05:32N 41°16' E 002°21'1413.9
2014-Nov-26 04:33N 41°12' E 002°04'1414.0
2014-Nov-26 03:33N 41°08' E 001°46'1413.5
2014-Nov-26 02:33N 41°05' E 001°29'1212.2
2014-Nov-26 01:32N 41°04' E 001°12'2 0.4
2014-Nov-25 21:11N 41°06' E 001°13'0 0.0
2014-Nov-25 20:31N 41°06' E 001°13'109 7.6
2014-Nov-25 06:13N 39°34' W 000°05'1116.7
2014-Nov-25 05:33N 39°26' W 000°15'4 3.6
2014-Nov-25 04:33N 39°27' W 000°19'0 0.0
2014-Nov-25 03:33N 39°27' W 000°19'0 0.0
2014-Nov-25 02:33N 39°27' W 000°19'0 0.0
2014-Nov-25 01:33N 39°27' W 000°19'0 0.0
2014-Nov-25 00:33N 39°27' W 000°19'0 0.0
2014-Nov-24 23:33N 39°27' W 000°19'0 0.0
2014-Nov-24 22:33N 39°27' W 000°19'0 0.0
2014-Nov-24 21:33N 39°27' W 000°19'0 0.0
2014-Nov-24 20:33N 39°27' W 000°19'0 0.0
2014-Nov-24 19:33N 39°27' W 000°19'0 0.0
2014-Nov-24 18:33N 39°27' W 000°19'0 0.0
2014-Nov-24 17:33N 39°27' W 000°19'0 0.0
2014-Nov-24 16:33N 39°27' W 000°19'0 0.0
2014-Nov-24 15:33N 39°27' W 000°19'0 0.0
2014-Nov-24 14:33N 39°27' W 000°19'0 0.0
2014-Nov-24 13:33N 39°27' W 000°19'0 0.0
2014-Nov-24 12:33N 39°27' W 000°19'0 0.0
2014-Nov-24 11:33N 39°27' W 000°19'5 4.8
2014-Nov-24 10:33N 39°24' W 000°14'8912.7
2014-Nov-24 03:32N 37°55' W 000°12'1515.6
2014-Nov-24 02:33N 37°42' W 000°23'4715.4
2014-Nov-23 23:31N 37°09' W 001°04'21115.0
2014-Nov-23 09:30N 36°01' W 005°13'1616.7
2014-Nov-23 08:33N 35°57' W 005°31'  
2014-Nov-20 21:31N 39°13' W 024°22'13215.6
2014-Nov-20 13:04N 39°32' W 027°10'816.0
2014-Nov-20 12:32N 39°34' W 027°21'1615.6
2014-Nov-20 11:30N 39°36' W 027°42'1515.8
2014-Nov-20 10:33N 39°38' W 028°01'1616.1
2014-Nov-20 09:33N 39°40' W 028°22'1615.7
2014-Nov-20 08:33N 39°42' W 028°42'1615.5
2014-Nov-20 07:33N 39°44' W 029°02'1515.4
2014-Nov-20 06:33N 39°46' W 029°22'1515.5
2014-Nov-20 05:33N 39°48' W 029°42'1715.9
2014-Nov-20 04:30N 39°50' W 030°04'2115.6
2014-Nov-20 03:09N 39°50' W 030°31'2615.3
2014-Nov-20 01:28N 39°50' W 031°05'1415.2
2014-Nov-20 00:33N 39°50' W 031°23'1615.6
2014-Nov-19 23:33N 39°50' W 031°43'1515.5
2014-Nov-19 22:33N 39°50' W 032°03'  
Track history (hours):
 
Tides and Currents Weather Stations Pressure Air Temp Water Temp Dewpoint Dewpoint Depression Visibility Wind Speed Wind Dir Waves Ship Positions

Zim Luanda

Last reported at 2014-Nov-27 11:32 UTC. Time now 2014-Nov-27 11:53 UTC.
Position N 43°35' E 010°18'.

Length 260 m; draft 10.5 m.

Type: Ship (hazmat cat A). MMSI: 249830000.

Date/timePositionNaut miles runAvg speedWind from/ knotsBaromVisibWave heightAir tempDewpointWater temp
2014-Nov-27 11:32N 43°35' E 010°18'0 0.0
2014-Nov-27 10:29N 43°35' E 010°18'0 0.3
2014-Nov-27 09:33N 43°34' E 010°18'6 5.7
2014-Nov-27 08:33N 43°30' E 010°13'1211.6
2014-Nov-27 07:33N 43°22' E 010°02'1313.5
2014-Nov-27 06:33N 43°16' E 009°45'15513.8
2014-Nov-26 19:19N 42°23' E 006°26'1713.9
2014-Nov-26 18:06N 42°17' E 006°05'814.2
2014-Nov-26 17:32N 42°14' E 005°55'1914.1
2014-Nov-26 16:12N 42°08' E 005°30'1014.7
2014-Nov-26 15:29N 42°04' E 005°17'1313.3
2014-Nov-26 14:33N 42°01' E 005°01'1414.1
2014-Nov-26 13:33N 41°55' E 004°44'1714.2
2014-Nov-26 12:20N 41°50' E 004°22'1314.3
2014-Nov-26 11:28N 41°45' E 004°06'1314.1
2014-Nov-26 10:33N 41°41' E 003°50'1514.1
2014-Nov-26 09:28N 41°35' E 003°31'1313.9
2014-Nov-26 08:33N 41°31' E 003°15'1616.4
2014-Nov-26 07:32N 41°26' E 002°54'2613.1
2014-Nov-26 05:32N 41°16' E 002°21'1413.9
2014-Nov-26 04:33N 41°12' E 002°04'1414.0
2014-Nov-26 03:33N 41°08' E 001°46'1413.5
2014-Nov-26 02:33N 41°05' E 001°29'1212.2
2014-Nov-26 01:32N 41°04' E 001°12'2 0.4
2014-Nov-25 21:11N 41°06' E 001°13'0 0.0
2014-Nov-25 20:31N 41°06' E 001°13'109 7.6
2014-Nov-25 06:13N 39°34' W 000°05'1116.7
2014-Nov-25 05:33N 39°26' W 000°15'4 3.6
2014-Nov-25 04:33N 39°27' W 000°19'0 0.0
2014-Nov-25 03:33N 39°27' W 000°19'0 0.0
2014-Nov-25 02:33N 39°27' W 000°19'0 0.0
2014-Nov-25 01:33N 39°27' W 000°19'0 0.0
2014-Nov-25 00:33N 39°27' W 000°19'0 0.0
2014-Nov-24 23:33N 39°27' W 000°19'0 0.0
2014-Nov-24 22:33N 39°27' W 000°19'0 0.0
2014-Nov-24 21:33N 39°27' W 000°19'0 0.0
2014-Nov-24 20:33N 39°27' W 000°19'0 0.0
2014-Nov-24 19:33N 39°27' W 000°19'0 0.0
2014-Nov-24 18:33N 39°27' W 000°19'0 0.0
2014-Nov-24 17:33N 39°27' W 000°19'0 0.0
2014-Nov-24 16:33N 39°27' W 000°19'0 0.0
2014-Nov-24 15:33N 39°27' W 000°19'0 0.0
2014-Nov-24 14:33N 39°27' W 000°19'0 0.0
2014-Nov-24 13:33N 39°27' W 000°19'0 0.0
2014-Nov-24 12:33N 39°27' W 000°19'0 0.0
2014-Nov-24 11:33N 39°27' W 000°19'5 4.8
2014-Nov-24 10:33N 39°24' W 000°14'8912.7
2014-Nov-24 03:32N 37°55' W 000°12'1515.6
2014-Nov-24 02:33N 37°42' W 000°23'4715.4
2014-Nov-23 23:31N 37°09' W 001°04'21115.0
2014-Nov-23 09:30N 36°01' W 005°13'1616.7
2014-Nov-23 08:33N 35°57' W 005°31'  
2014-Nov-20 21:31N 39°13' W 024°22'13215.6
2014-Nov-20 13:04N 39°32' W 027°10'816.0
2014-Nov-20 12:32N 39°34' W 027°21'1615.6
2014-Nov-20 11:30N 39°36' W 027°42'1515.8
2014-Nov-20 10:33N 39°38' W 028°01'1616.1
2014-Nov-20 09:33N 39°40' W 028°22'1615.7
2014-Nov-20 08:33N 39°42' W 028°42'1615.5
2014-Nov-20 07:33N 39°44' W 029°02'1515.4
2014-Nov-20 06:33N 39°46' W 029°22'1515.5
2014-Nov-20 05:33N 39°48' W 029°42'1715.9
2014-Nov-20 04:30N 39°50' W 030°04'2115.6
2014-Nov-20 03:09N 39°50' W 030°31'2615.3
2014-Nov-20 01:28N 39°50' W 031°05'1415.2
2014-Nov-20 00:33N 39°50' W 031°23'1615.6
2014-Nov-19 23:33N 39°50' W 031°43'1515.5
2014-Nov-19 22:33N 39°50' W 032°03'  

Dump ship's entire track history